When you browse on this site, cookies collect data to enhance your experience and personalize the content and advertising you see.
Visit our Privacy Policy to learn more. By continuing to use the site, you agree to this use of cookies and data.
  • In Lithuania
  • List of Countries
  • For 7 days
  • Water Temperature
  • Weather Map
  • Weather Widgets
  • user-avatar
    Login

    Hourly Weather Perevoloki

    Today, 26 January, Sunday

    Time Temperature Precipitation Wind Pressure Humidity
    00:00 -5°C° 0 mm 6 mps 739 mmHg 81%
    01:00 -5°C° 0 mm 6 mps 740 mmHg 81%
    02:00 -5°C° 0 mm 6 mps 740 mmHg 81%
    03:00 -5°C° 0 mm 6 mps 741 mmHg 82%
    04:00 -5°C° 0 mm 6 mps 742 mmHg 83%
    05:00 -5°C° 0 mm 6 mps 742 mmHg 84%
    06:00 -6°C° 0 mm 5 mps 743 mmHg 85%
    07:00 -6°C° 0 mm 5 mps 744 mmHg 86%
    08:00 -5°C° 0 mm 4 mps 744 mmHg 89%
    09:00 -5°C° 0 mm 5 mps 745 mmHg 87%
    10:00 -5°C° 0 mm 5 mps 745 mmHg 85%
    11:00 -4°C° 0 mm 6 mps 746 mmHg 83%
    12:00 -4°C° 0 mm 5 mps 746 mmHg 83%
    13:00 -4°C° 0 mm 5 mps 746 mmHg 84%
    14:00 -4°C° 0 mm 5 mps 746 mmHg 84%
    15:00 -4°C° 0 mm 5 mps 745 mmHg 85%
    16:00 -5°C° 0 mm 5 mps 745 mmHg 86%
    17:00 -5°C° 0 mm 6 mps 745 mmHg 87%
    18:00 -4°C° 0 mm 6 mps 745 mmHg 88%
    19:00 -4°C° 0 mm 7 mps 744 mmHg 90%
    20:00 -5°C° 0 mm 8 mps 744 mmHg 92%
    21:00 -4°C° 0.1 mm 8 mps 744 mmHg 93%
    22:00 -4°C° 0.1 mm 8 mps 743 mmHg 94%
    23:00 -4°C° 0.1 mm 8 mps 743 mmHg 94%

    Tomorrow, 27 January, Monday

    Time Temperature Precipitation Wind Pressure Humidity
    00:00 -2°C° 0 mm 8 mps 743 mmHg 93%
    01:00 -2°C° 0 mm 7 mps 743 mmHg 92%
    02:00 -2°C° 0 mm 7 mps 743 mmHg 91%
    03:00 -1°C° 0 mm 7 mps 743 mmHg 92%
    04:00 -1°C° 0 mm 6 mps 743 mmHg 93%
    05:00 -1°C° 0 mm 6 mps 743 mmHg 94%
    06:00 -2°C° 0 mm 6 mps 744 mmHg 95%
    07:00 -1°C° 0 mm 5 mps 744 mmHg 96%
    08:00 -1°C° 0 mm 5 mps 745 mmHg 97%
    09:00 -1°C° 0 mm 5 mps 745 mmHg 97%
    10:00 -1°C° 0 mm 4 mps 745 mmHg 98%
    11:00 +1°C° 0 mm 3 mps 746 mmHg 98%
    12:00 0°C° 0 mm 3 mps 746 mmHg 98%
    13:00 0°C° 0 mm 3 mps 746 mmHg 98%
    14:00 0°C° 0 mm 3 mps 746 mmHg 99%
    15:00 +1°C° 0.1 mm 2 mps 746 mmHg 98%
    16:00 +1°C° 0.1 mm 2 mps 747 mmHg 98%
    17:00 +1°C° 0.1 mm 2 mps 747 mmHg 98%
    18:00 +1°C° 0.1 mm 2 mps 747 mmHg 98%
    19:00 +1°C° 0.1 mm 2 mps 747 mmHg 98%
    20:00 +1°C° 0.1 mm 2 mps 747 mmHg 98%
    21:00 +1°C° 0.3 mm 2 mps 747 mmHg 98%
    22:00 -1°C° 0.3 mm 2 mps 747 mmHg 98%
    23:00 -1°C° 0.3 mm 3 mps 747 mmHg 98%

    Day after tomorrow, 28 January, Tuesday

    Time Temperature Precipitation Wind Pressure Humidity
    00:00 -1°C° 0.4 mm 3 mps 746 mmHg 98%
    01:00 -1°C° 0.4 mm 3 mps 746 mmHg 98%
    02:00 -1°C° 0.4 mm 3 mps 746 mmHg 97%
    03:00 -1°C° 0.2 mm 3 mps 746 mmHg 97%
    04:00 -1°C° 0.2 mm 3 mps 745 mmHg 97%
    05:00 -2°C° 0.2 mm 3 mps 745 mmHg 97%
    06:00 -2°C° 0.1 mm 3 mps 745 mmHg 96%
    07:00 -2°C° 0.1 mm 3 mps 745 mmHg 96%
    08:00 -3°C° 0.1 mm 4 mps 745 mmHg 95%
    09:00 -2°C° 0.1 mm 4 mps 745 mmHg 96%
    10:00 -2°C° 0.1 mm 4 mps 745 mmHg 96%
    11:00 -2°C° 0.1 mm 4 mps 744 mmHg 97%
    12:00 -2°C° 0.2 mm 4 mps 744 mmHg 97%
    13:00 -2°C° 0.2 mm 4 mps 744 mmHg 97%
    14:00 -1°C° 0.2 mm 4 mps 744 mmHg 97%
    15:00 -2°C° 0.1 mm 4 mps 744 mmHg 97%
    16:00 -2°C° 0.1 mm 4 mps 744 mmHg 97%
    17:00 -2°C° 0.1 mm 4 mps 744 mmHg 97%
    18:00 -2°C° 0.1 mm 4 mps 744 mmHg 96%
    19:00 -2°C° 0.1 mm 4 mps 744 mmHg 96%
    20:00 -2°C° 0.1 mm 4 mps 744 mmHg 95%
    21:00 -2°C° 0 mm 4 mps 744 mmHg 95%
    22:00 -2°C° 0 mm 4 mps 744 mmHg 95%
    23:00 -2°C° 0 mm 4 mps 744 mmHg 96%

    29 January, Wednesday

    Time Temperature Precipitation Wind Pressure Humidity
    00:00 -1°C° 0 mm 3 mps 744 mmHg 95%
    01:00 -1°C° 0 mm 3 mps 744 mmHg 95%
    02:00 -1°C° 0 mm 3 mps 744 mmHg 95%
    03:00 -1°C° 0 mm 3 mps 743 mmHg 95%
    04:00 -1°C° 0 mm 3 mps 743 mmHg 95%
    05:00 -1°C° 0 mm 3 mps 743 mmHg 95%
    06:00 -1°C° 0 mm 3 mps 743 mmHg 96%
    07:00 0°C° 0 mm 3 mps 742 mmHg 96%
    08:00 0°C° 0 mm 3 mps 742 mmHg 97%
    09:00 0°C° 0 mm 3 mps 742 mmHg 98%
    10:00 -1°C° 0 mm 4 mps 742 mmHg 99%
    11:00 -1°C° 0 mm 4 mps 741 mmHg 99%
    12:00 -1°C° 0.1 mm 4 mps 741 mmHg 99%
    13:00 0°C° 0.1 mm 4 mps 740 mmHg 99%
    14:00 0°C° 0.1 mm 5 mps 740 mmHg 99%
    15:00 -1°C° 0.2 mm 5 mps 739 mmHg 98%
    16:00 -1°C° 0.2 mm 5 mps 739 mmHg 98%
    17:00 -1°C° 0.2 mm 5 mps 739 mmHg 97%
    18:00 -1°C° 0.3 mm 5 mps 738 mmHg 97%
    19:00 -3°C° 0.3 mm 6 mps 738 mmHg 97%
    20:00 -3°C° 0.3 mm 6 mps 738 mmHg 97%
    21:00 -3°C° 0.3 mm 6 mps 737 mmHg 97%
    22:00 -3°C° 0.3 mm 6 mps 737 mmHg 97%
    23:00 -2°C° 0.3 mm 6 mps 736 mmHg 97%

    30 January, Thursday

    Time Temperature Precipitation Wind Pressure Humidity
    00:00 -1°C° 0.1 mm 5 mps 736 mmHg 97%
    01:00 0°C° 0.1 mm 5 mps 735 mmHg 97%
    02:00 0°C° 0.1 mm 5 mps 734 mmHg 98%
    03:00 0°C° 0.3 mm 5 mps 734 mmHg 98%
    04:00 -1°C° 0.3 mm 6 mps 733 mmHg 98%
    05:00 -1°C° 0.3 mm 6 mps 732 mmHg 98%
    06:00 -1°C° 0.8 mm 6 mps 732 mmHg 97%
    07:00 -2°C° 0.8 mm 6 mps 732 mmHg 96%
    08:00 -1°C° 0.8 mm 5 mps 732 mmHg 95%
    09:00 -2°C° 0.1 mm 6 mps 732 mmHg 93%
    10:00 -2°C° 0.1 mm 7 mps 733 mmHg 92%
    11:00 -4°C° 0.1 mm 8 mps 733 mmHg 91%
    12:00 -4°C° 0.1 mm 8 mps 733 mmHg 90%
    13:00 -4°C° 0.1 mm 8 mps 734 mmHg 89%
    14:00 -4°C° 0.1 mm 8 mps 734 mmHg 88%
    15:00 -3°C° 0.1 mm 7 mps 734 mmHg 89%
    16:00 -3°C° 0.1 mm 7 mps 735 mmHg 90%
    17:00 -3°C° 0.1 mm 6 mps 735 mmHg 90%
    18:00 -3°C° 0.3 mm 7 mps 735 mmHg 92%
    19:00 -3°C° 0.3 mm 7 mps 735 mmHg 93%
    20:00 -3°C° 0.3 mm 7 mps 735 mmHg 94%
    21:00 -3°C° 0 mm 6 mps 735 mmHg 91%
    22:00 -3°C° 0 mm 6 mps 736 mmHg 88%
    23:00 -2°C° 0 mm 5 mps 736 mmHg 86%

    31 January, Friday

    Time Temperature Precipitation Wind Pressure Humidity
    00:00 -4°C° 0 mm 5 mps 735 mmHg 87%
    01:00 -3°C° 0 mm 4 mps 735 mmHg 89%
    02:00 -3°C° 0 mm 4 mps 735 mmHg 90%
    03:00 -3°C° 0 mm 4 mps 735 mmHg 91%
    04:00 -3°C° 0 mm 4 mps 735 mmHg 92%
    05:00 -3°C° 0 mm 4 mps 735 mmHg 92%
    06:00 -2°C° 0 mm 3 mps 735 mmHg 93%
    07:00 -4°C° 0 mm 3 mps 735 mmHg 94%
    08:00 -4°C° 0 mm 3 mps 735 mmHg 95%
    09:00 -2°C° 0.1 mm 3 mps 735 mmHg 94%
    10:00 -2°C° 0.1 mm 3 mps 735 mmHg 94%
    11:00 -1°C° 0.1 mm 2 mps 735 mmHg 94%
    12:00 -1°C° 0.1 mm 2 mps 735 mmHg 94%
    13:00 +1°C° 0.1 mm 1 mps 735 mmHg 94%
    14:00 0°C° 0.1 mm 0 mps 735 mmHg 94%
    15:00 0°C° 0 mm 0 mps 735 mmHg 94%
    16:00 0°C° 0 mm 1 mps 736 mmHg 95%
    17:00 0°C° 0 mm 1 mps 736 mmHg 96%
    18:00 0°C° 0 mm 1 mps 736 mmHg 96%
    19:00 0°C° 0 mm 1 mps 737 mmHg 96%
    20:00 -1°C° 0 mm 1 mps 737 mmHg 95%
    21:00 -3°C° 0 mm 2 mps 737 mmHg 96%
    22:00 -3°C° 0 mm 2 mps 738 mmHg 96%
    23:00 -4°C° 0 mm 2 mps 738 mmHg 96%
    Show more